CW7604 Naestved DK current weather conditions

sailwx.info

Wind from 228

Air temperature 17.2° C
Dewpoint 9.9° C

Last reported at 2019-Aug-23 21:04 UTC.
Time now 2019-Aug-23 21:53 UTC

Location: N 55°18' E 011°49'.
View on Google Maps.

See reports from other nearby stations

  
Tides and Currents Weather Stations Pressure Air Temp Water Temp Dewpoint Dewpoint Depression Visibility Wind Speed Wind Dir Waves Ship Positions
date/time (UTC)wind fromknots sea level pressurealtimeterstation pressurevisibilityair tempwater tempwave heightnotes
2019-Aug-23 21:04 228 17.2
2019-Aug-23 20:54 228 17.2
2019-Aug-23 20:44 228 17.8
2019-Aug-23 20:34 228 17.8
2019-Aug-23 20:24 228 17.8
2019-Aug-23 20:14 228 17.8
2019-Aug-23 20:04 228 17.8
2019-Aug-23 19:54 228 18.3
2019-Aug-23 19:44 228 18.3
2019-Aug-23 19:34 228 18.3
2019-Aug-23 19:24 228 18.9
2019-Aug-23 19:14 228 18.9
2019-Aug-23 19:04 228 19.4
2019-Aug-23 18:54 228 19.4
2019-Aug-23 18:44 228 20.0
2019-Aug-23 18:34 228 20.0
2019-Aug-23 18:24 228 0 gusting 1 20.6
2019-Aug-23 18:14 228 0 gusting 2 20.6
2019-Aug-23 18:04 228 0 gusting 2 21.1
2019-Aug-23 17:54 229 0 gusting 2 21.7
2019-Aug-23 17:44 223 0 gusting 4 21.7
2019-Aug-23 17:34 220 1 gusting 5 21.7
2019-Aug-23 17:24 222 2 gusting 6 22.2
2019-Aug-23 17:14 222 2 gusting 6 21.7
2019-Aug-23 17:04 226 1 gusting 4 21.7
2019-Aug-23 16:54 234 3 gusting 6 22.2
2019-Aug-23 16:44 239 2 gusting 6 22.8
2019-Aug-23 16:34 265 2 gusting 10 23.3
2019-Aug-23 16:24 248 4 gusting 10 23.3
2019-Aug-23 16:14 237 2 gusting 10 23.3
2019-Aug-23 16:04 230 5 gusting 10 23.3
2019-Aug-23 15:54 238 4 gusting 8 23.3
2019-Aug-23 15:44 264 4 gusting 10 23.9
2019-Aug-23 15:34 212 5 gusting 10 23.9
2019-Aug-23 15:24 240 5 gusting 10 23.9
2019-Aug-23 15:14 242 4 gusting 10 23.9
2019-Aug-23 15:04 216 4 gusting 10 23.9
2019-Aug-23 14:54 235 2 gusting 10 23.9
2019-Aug-23 14:44 242 5 gusting 10 23.9
2019-Aug-23 14:34 196 5 gusting 10 23.9
2019-Aug-23 14:24 221 6 gusting 10 23.9
2019-Aug-23 14:14 222 6 gusting 10 23.9
2019-Aug-23 14:04 263 4 gusting 10 24.4
2019-Aug-23 13:54 251 4 gusting 10 23.9
2019-Aug-23 13:44 207 5 gusting 12 23.9
2019-Aug-23 13:34 237 4 gusting 11 24.4
2019-Aug-23 13:24 247 5 gusting 11 23.9
2019-Aug-23 13:14 259 5 gusting 10 23.9
2019-Aug-23 13:04 223 6 gusting 12 23.9
2019-Aug-23 12:54 311 5 gusting 12 23.9
2019-Aug-23 12:44 216 5 gusting 11 23.3
2019-Aug-23 12:34 206 5 gusting 11 23.3
2019-Aug-23 12:24 199 4 gusting 11 23.3
2019-Aug-23 12:14 230 5 gusting 10 23.3
2019-Aug-23 12:04 207 6 gusting 10 23.3
2019-Aug-23 11:54 199 5 gusting 12 23.3
2019-Aug-23 11:44 207 5 gusting 12 23.3
2019-Aug-23 11:34 204 5 gusting 10 23.3
2019-Aug-23 11:24 211 6 gusting 10 23.3
2019-Aug-23 11:14 212 4 gusting 10 23.3
2019-Aug-23 11:04 206 5 gusting 10 22.8
2019-Aug-23 10:54 232 5 gusting 11 22.8
2019-Aug-23 10:44 222 6 gusting 12 22.8
2019-Aug-23 10:34 209 5 gusting 10 22.2
2019-Aug-23 10:24 201 6 gusting 13 22.2
2019-Aug-23 10:14 224 6 gusting 12 22.2
2019-Aug-23 10:04 223 6 gusting 11 22.2
2019-Aug-23 09:54 226 5 gusting 11 21.7
2019-Aug-23 09:44 206 6 gusting 10 21.1
2019-Aug-23 09:34 232 6 gusting 11 21.1
2019-Aug-23 09:24 219 5 gusting 11 21.1
2019-Aug-23 09:14 215 5 gusting 10 21.1
2019-Aug-23 09:04 227 4 gusting 12 20.6
2019-Aug-23 08:54 238 5 gusting 12 20.0
2019-Aug-23 08:44 229 5 gusting 8 19.4
2019-Aug-23 08:34 236 6 gusting 12 19.4
2019-Aug-23 08:24 236 5 gusting 10 20.0
2019-Aug-23 08:14 205 5 gusting 12 20.0
2019-Aug-23 08:04 210 5 gusting 10 19.4
2019-Aug-23 07:54 221 6 gusting 11 19.4
2019-Aug-23 07:44 200 5 gusting 10 19.4
2019-Aug-23 07:34 211 3 gusting 10 18.9
2019-Aug-23 07:24 206 3 gusting 8 18.9
2019-Aug-23 07:14 226 2 gusting 8 18.9
2019-Aug-23 07:04 244 4 gusting 11 18.9
2019-Aug-23 06:54 232 5 gusting 8 18.9
2019-Aug-23 06:44 224 4 gusting 8 18.9
2019-Aug-23 06:34 303 4 gusting 8 18.3
2019-Aug-23 06:24 207 4 gusting 10 18.3
2019-Aug-23 06:14 202 4 gusting 10 18.3
2019-Aug-23 06:04 227 4 gusting 8 17.8
2019-Aug-23 05:54 219 3 gusting 7 17.2
2019-Aug-23 05:44 214 2 gusting 5 16.7
2019-Aug-23 05:34 218 3 gusting 5 16.7
2019-Aug-23 05:24 227 3 gusting 6 16.1
2019-Aug-23 05:14 185 2 gusting 6 15.6
2019-Aug-23 05:04 200 1 gusting 4 15.0
2019-Aug-23 04:54 201 1 gusting 4 15.0
2019-Aug-23 04:44 202 1 gusting 2 15.0
2019-Aug-23 04:34 202 1 gusting 4 15.0
2019-Aug-23 04:24 203 0 gusting 2 15.0
2019-Aug-23 04:14 203 0 gusting 2 15.0
2019-Aug-23 04:04 203 1 gusting 2 15.0
2019-Aug-23 03:54 202 1 gusting 2 15.0
2019-Aug-23 03:44 202 1 gusting 4 15.0
2019-Aug-23 03:34 201 1 gusting 4 15.0
2019-Aug-23 03:24 200 1 gusting 2 15.0
2019-Aug-23 03:14 200 1 gusting 2 15.0
2019-Aug-23 03:04 200 0 gusting 2 15.0
2019-Aug-23 02:54 200 0 gusting 2 15.0
2019-Aug-23 02:44 200 0 gusting 2 15.0
2019-Aug-23 02:34 200 0 gusting 1 15.0
2019-Aug-23 02:24 200 15.0
2019-Aug-23 02:14 200 1 gusting 2 15.0
2019-Aug-23 02:04 200 0 gusting 2 15.0
2019-Aug-23 01:54 200 1 gusting 2 15.0
2019-Aug-23 01:44 200 1 gusting 4 15.0
2019-Aug-23 01:34 200 2 gusting 2 15.6
2019-Aug-23 01:24 200 2 gusting 2 15.6
2019-Aug-23 01:14 200 1 gusting 2 15.6
2019-Aug-23 01:04 200 1 gusting 2 15.6
2019-Aug-23 00:54 200 1 gusting 2 15.6
2019-Aug-23 00:44 200 1 gusting 2 15.6
2019-Aug-23 00:34 200 1 gusting 4 15.6
2019-Aug-23 00:24 200 1 gusting 4 15.6
2019-Aug-23 00:14 200 1 gusting 4 15.6
2019-Aug-23 00:04 200 1 gusting 2 15.6
2019-Aug-22 23:54 200 1 gusting 2 15.6
2019-Aug-22 23:44 200 0 gusting 2 15.6
2019-Aug-22 23:34 200 0 gusting 2 15.6
2019-Aug-22 23:24 200 0 gusting 2 15.6
2019-Aug-22 23:14 200 0 gusting 2 15.6
2019-Aug-22 23:04 200 15.6
2019-Aug-22 22:54 200 0 gusting 2 15.6
2019-Aug-22 22:44 200 1 gusting 2 15.6
2019-Aug-22 22:34 200 15.6
2019-Aug-22 22:24 200 15.6
2019-Aug-22 22:14 200 15.6
2019-Aug-22 22:04 200 15.6
2019-Aug-22 21:54 200 16.1
2019-Aug-22 21:44 200 16.1
2019-Aug-22 21:34 200 16.1
2019-Aug-22 21:24 200 0 gusting 2 16.1
2019-Aug-22 21:14 200 16.1
2019-Aug-22 21:04 200 16.7
2019-Aug-22 20:54 200 0 gusting 2 16.7
2019-Aug-22 20:44 200 0 gusting 1 16.7
2019-Aug-22 20:34 200 0 gusting 1 16.7
2019-Aug-22 20:24 200 16.7
2019-Aug-22 20:14 200 16.7
2019-Aug-22 20:04 200 16.7
2019-Aug-22 19:54 200 17.2
2019-Aug-22 19:44 200 0 gusting 1 17.2
2019-Aug-22 19:34 200 17.2
2019-Aug-22 19:24 200 17.8
2019-Aug-22 19:14 200 17.8
2019-Aug-22 19:04 200 17.8
2019-Aug-22 18:54 200 17.8
2019-Aug-22 18:44 200 18.3
2019-Aug-22 18:34 200 18.9
2019-Aug-22 18:24 200 18.9
2019-Aug-22 18:14 200 19.4
2019-Aug-22 18:04 200 20.0
2019-Aug-22 17:54 200 20.6
2019-Aug-22 17:44 200 0 gusting 2 21.1
2019-Aug-22 17:34 200 0 gusting 2 21.1
2019-Aug-22 17:24 201 0 gusting 2 21.7
2019-Aug-22 17:14 201 1 gusting 4 21.7
2019-Aug-22 17:04 216 1 gusting 5 22.2
2019-Aug-22 16:54 236 3 gusting 6 22.2
2019-Aug-22 16:44 230 4 gusting 6 22.8
2019-Aug-22 16:34 225 4 gusting 10 22.8
2019-Aug-22 16:24 195 4 gusting 8 23.3
2019-Aug-22 16:14 244 5 gusting 10 23.3
2019-Aug-22 16:04 222 4 gusting 12 23.3
2019-Aug-22 15:54 244 6 gusting 13 23.3
2019-Aug-22 15:44 219 5 gusting 10 23.3
2019-Aug-22 15:34 180 6 gusting 13 23.3
2019-Aug-22 15:24 197 7 gusting 13 22.8
2019-Aug-22 15:14 184 6 gusting 13 23.3
2019-Aug-22 15:04 202 7 gusting 12 23.3
2019-Aug-22 14:54 181 7 gusting 17 23.3
2019-Aug-22 14:44 188 6 gusting 14 23.3
2019-Aug-22 14:34 200 7 gusting 13 23.3
2019-Aug-22 14:24 197 7 gusting 13 23.3
2019-Aug-22 14:14 192 7 gusting 13 23.3
2019-Aug-22 14:04 212 8 gusting 13 22.8
2019-Aug-22 13:54 192 7 gusting 13 22.8
2019-Aug-22 13:44 207 8 gusting 14 22.8
2019-Aug-22 13:34 190 7 gusting 12 23.3
2019-Aug-22 13:24 196 6 gusting 12 23.3
2019-Aug-22 13:14 203 5 gusting 15 22.8
2019-Aug-22 13:04 215 6 gusting 12 22.8
2019-Aug-22 12:54 195 6 gusting 13 22.8
2019-Aug-22 12:44 204 6 gusting 14 22.8
2019-Aug-22 12:34 190 6 gusting 13 22.2
2019-Aug-22 12:24 181 7 gusting 13 22.8
2019-Aug-22 12:14 206 6 gusting 13 22.2
2019-Aug-22 12:04 184 9 gusting 17 22.2
2019-Aug-22 11:54 216 6 gusting 13 22.2
2019-Aug-22 11:44 192 5 gusting 13 22.2
2019-Aug-22 11:34 197 6 gusting 11 22.2
2019-Aug-22 11:24 204 5 gusting 14 22.2
2019-Aug-22 11:14 185 5 gusting 14 22.2
2019-Aug-22 11:04 202 6 gusting 14 22.2
2019-Aug-22 10:54 196 7 gusting 13 22.2
2019-Aug-22 10:44 195 4 gusting 12 22.2
2019-Aug-22 10:34 192 6 gusting 15 21.7
2019-Aug-22 10:24 195 6 gusting 13 21.7
2019-Aug-22 10:14 182 6 gusting 12 21.1
2019-Aug-22 10:04 196 6 gusting 13 21.1
2019-Aug-22 09:54 197 6 gusting 13 20.6
2019-Aug-22 09:44 209 5 gusting 11 20.6
2019-Aug-22 09:34 200 5 gusting 13 20.6
2019-Aug-22 09:24 181 8 gusting 13 20.6
2019-Aug-22 09:14 221 7 gusting 14 20.6
2019-Aug-22 09:04 216 6 gusting 13 20.6
2019-Aug-22 08:54 203 5 gusting 13 20.0
2019-Aug-22 08:44 200 6 gusting 11 20.6
2019-Aug-22 08:34 195 5 gusting 10 20.6
2019-Aug-22 08:24 201 5 gusting 10 20.0
2019-Aug-22 08:14 190 4 gusting 11 19.4
2019-Aug-22 08:04 209 4 gusting 10 19.4
2019-Aug-22 07:54 189 2 gusting 10 18.9
2019-Aug-22 07:44 208 5 gusting 10 18.3
2019-Aug-22 07:34 195 2 gusting 10 17.8
2019-Aug-22 07:24 187 4 gusting 8 17.8
2019-Aug-22 07:14 199 2 gusting 10 17.2
2019-Aug-22 07:04 198 3 gusting 8 16.7
2019-Aug-22 06:54 194 5 gusting 10 16.7
2019-Aug-22 06:44 201 2 gusting 6 16.1
2019-Aug-22 06:34 203 2 gusting 5 16.1
2019-Aug-22 06:24 194 0 gusting 4 15.6
2019-Aug-22 06:14 191 1 gusting 2 15.0
2019-Aug-22 06:04 219 0 gusting 2 14.4
2019-Aug-22 05:54 230 0 gusting 2 13.9
2019-Aug-22 05:44 230 0 gusting 1 13.9
2019-Aug-22 05:34 230 13.3
2019-Aug-22 05:24 232 0 gusting 1 13.3
2019-Aug-22 05:14 232 0 gusting 1 12.8
2019-Aug-22 05:04 232 0 gusting 1 12.8
2019-Aug-22 04:54 232 12.2
2019-Aug-22 04:44 232 12.2
2019-Aug-22 04:34 232 0 gusting 1 11.7
2019-Aug-22 04:24 232 11.7
2019-Aug-22 04:14 232 11.7
2019-Aug-22 04:04 232 12.2
2019-Aug-22 03:54 232 12.2
2019-Aug-22 03:44 232 12.2
2019-Aug-22 03:34 232 12.2
2019-Aug-22 03:24 232 12.2
2019-Aug-22 03:14 232 12.2
2019-Aug-22 03:04 232 12.2
2019-Aug-22 02:54 232 12.2
2019-Aug-22 02:44 232 12.2
2019-Aug-22 02:34 232 12.2
2019-Aug-22 02:24 232 12.2
2019-Aug-22 02:14 232 12.2
2019-Aug-22 02:04 232 12.2
2019-Aug-22 01:54 232 11.7
2019-Aug-22 01:44 232 11.7
2019-Aug-22 01:34 232 11.7
2019-Aug-22 01:24 232 11.7
2019-Aug-22 01:14 232 11.7
2019-Aug-22 01:04 232 11.7
2019-Aug-22 00:54 232 11.7
2019-Aug-22 00:44 232 11.7
2019-Aug-22 00:34 232 11.7
2019-Aug-22 00:24 232 11.7
2019-Aug-22 00:14 232 11.7
2019-Aug-22 00:04 232 12.2
2019-Aug-21 23:54 232 12.2
2019-Aug-21 23:44 232 12.2
2019-Aug-21 23:34 232 12.2
2019-Aug-21 23:24 232 12.2
2019-Aug-21 23:14 232 12.8
2019-Aug-21 23:04 232 12.8
2019-Aug-21 22:54 232 12.8
2019-Aug-21 22:44 232 12.8
2019-Aug-21 22:34 232 12.8
2019-Aug-21 22:24 232 12.8
2019-Aug-21 22:14 232 12.8
2019-Aug-21 22:04 232 13.3
2019-Aug-21 21:54 232 13.3
2019-Aug-21 21:44 232 13.3
2019-Aug-21 21:34 232 13.3
2019-Aug-21 21:24 232 13.9
2019-Aug-21 21:14 232 13.9
2019-Aug-21 21:04 232 13.9